EW2018 Weather Reports


Display with metric or nautical units.
time (UTC)temp
F
wind
direction
speed
MPH
gust
MPH
rain 1hr
in
rain 24hr
in
rain mn
in
humidity
%
barometer
mb
20190426093115 41 317 0.0 0.0 0.00 0.00 0.00 95 1010.6
20190426091735 40 317 0.0 2.0 0.00 0.00 0.00 95 1010.8
20190426090136 40 326 1.0 4.0 0.00 0.00 0.00 95 1010.8
20190426084615 40 308 0.0 3.0 0.00 0.00 0.00 95 1010.8
20190426083142 40 302 0.0 3.0 0.00 0.00 0.00 96 1010.8
20190426081618 40 313 2.0 4.0 0.00 0.00 0.00 96 1010.8
20190426080054 40 301 0.0 0.0 0.00 0.00 0.00 96 1010.8
20190426074627 40 301 0.0 0.0 0.00 0.00 0.00 95 1011.0
20190426073126 40 301 0.0 0.0 0.00 0.00 0.00 95 1011.2
20190426071551 40 301 0.0 0.0 0.00 0.00 0.00 95 1011.3
20190426070123 41 301 0.0 0.0 0.00 0.00 0.00 95 1011.5
20190426064556 40 308 0.0 1.0 0.00 0.01 0.00 96 1011.5
20190426063057 40 308 0.0 2.0 0.00 0.01 0.00 95 1011.7
20190426061532 40 305 0.0 2.0 0.00 0.01 0.00 95 1012.0
20190426060030 41 307 1.0 3.0 0.00 0.01 0.00 95 1012.1
20190426054535 40 301 2.0 4.0 0.00 0.01 0.00 96 1012.1
20190426053036 40 316 1.0 2.0 0.00 0.01 0.00 95 1012.4
20190426051533 40 313 0.0 0.0 0.00 0.01 0.00 94 1012.6
20190426050044 40 311 0.0 0.0 0.00 0.01 0.00 94 1012.9
20190426044516 41 311 0.0 0.0 0.00 0.01 0.00 93 1012.8
20190426043015 42 311 0.0 2.0 0.00 0.01 0.00 93 1012.7
20190426041514 42 306 1.0 3.0 0.00 0.01 0.00 93 1012.8
20190426040159 42 315 1.0 3.0 0.00 0.01 0.00 92 1012.7
20190426034702 43 315 0.0 3.0 0.00 0.01 0.01 91 1012.9
20190426033133 43 268 1.0 2.0 0.00 0.01 0.01 91 1012.9
20190426031634 43 263 0.0 1.0 0.00 0.01 0.01 90 1013.0
20190426030139 44 263 0.0 2.0 0.00 0.01 0.01 90 1012.9
20190426024646 44 306 2.0 4.0 0.00 0.01 0.01 90 1012.9
20190426023223 44 269 2.0 6.0 0.00 0.01 0.01 89 1013.2
20190426021647 44 315 1.0 3.0 0.00 0.01 0.01 87 1013.3
20190426014641 45 309 1.0 5.0 0.00 0.01 0.01 86 1013.1
20190426013158 45 286 1.0 5.0 0.00 0.01 0.01 85 1013.0
20190426011715 46 342 2.0 5.0 0.00 0.01 0.01 84 1012.9
20190426010143 46 296 2.0 5.0 0.00 0.01 0.01 84 1012.9
20190426004635 46 333 2.0 4.0 0.00 0.01 0.01 85 1012.9
20190426003133 47 295 2.0 4.0 0.00 0.01 0.01 84 1012.9
20190426001713 47 335 1.0 3.0 0.00 0.01 0.01 84 1012.5
20190426000122 48 16 0.0 3.0 0.00 0.01 0.01 82 1012.3
20190425234747 49 297 2.0 4.0 0.00 0.01 0.01 81 1011.9
20190425233133 50 318 2.0 4.0 0.00 0.01 0.01 77 1011.8
20190425230136 51 296 0.0 2.0 0.00 0.01 0.01 73 1011.8
20190425224637 52 296 1.0 2.0 0.00 0.01 0.01 71 1011.8
20190425223120 53 296 2.0 3.0 0.00 0.01 0.01 69 1011.7
20190425221624 53 296 1.0 3.0 0.00 0.01 0.01 67 1011.6
20190425220104 53 267 2.0 4.0 0.00 0.01 0.01 67 1011.5
20190425214626 54 300 1.0 2.0 0.00 0.01 0.01 64 1011.4
20190425213137 56 300 1.0 3.0 0.00 0.01 0.01 60 1011.5
20190425211623 57 300 1.0 4.0 0.00 0.01 0.01 58 1011.7
20190425210104 58 309 1.0 4.0 0.00 0.01 0.01 55 1011.8
20190425204623 57 66 1.0 3.0 0.00 0.01 0.01 55 1012.0
20190425203112 57 167 1.0 5.0 0.00 0.01 0.01 58 1011.9
20190425201617 56 92 2.0 5.0 0.00 0.01 0.01 57 1012.1
20190425200113 56 95 2.0 5.0 0.00 0.01 0.01 58 1012.2
20190425194659 55 104 2.0 7.0 0.00 0.01 0.01 59 1012.1
20190425193133 55 292 2.0 7.0 0.00 0.01 0.01 60 1012.2
20190425191555 54 288 1.0 6.0 0.00 0.01 0.01 61 1012.4
20190425190057 53 61 1.0 5.0 0.00 0.01 0.01 65 1012.5
20190425184545 53 55 2.0 8.0 0.00 0.01 0.01 61 1012.8
20190425183054 53 29 3.0 8.0 0.00 0.01 0.01 63 1013.1
20190425180017 50 140 1.0 5.0 0.00 0.01 0.01 70 1013.5
20190425174513 50 186 2.0 5.0 0.00 0.01 0.01 70 1013.6
20190425173009 49 198 2.0 5.0 0.00 0.01 0.01 68 1013.7
20190425171517 49 144 1.0 5.0 0.00 0.01 0.01 68 1013.9
20190425170002 49 87 2.0 6.0 0.00 0.01 0.01 70 1013.8
20190425164654 48 184 0.0 4.0 0.00 0.01 0.01 72 1014.0
20190425163222 48 135 2.0 4.0 0.00 0.01 0.01 71 1014.0
20190425161635 48 189 1.0 4.0 0.00 0.01 0.01 72 1014.1
20190425160152 47 118 1.0 5.0 0.00 0.01 0.01 72 1014.1
20190425154612 48 144 1.0 4.0 0.00 0.01 0.01 72 1014.2
20190425153216 47 83 1.0 5.0 0.00 0.01 0.01 76 1014.0
20190425151809 47 213 1.0 4.0 0.00 0.01 0.01 76 1014.0
20190425150144 47 32 2.0 4.0 0.00 0.01 0.01 76 1014.0
20190425144626 46 133 1.0 4.0 0.00 0.01 0.01 78 1013.9
20190425143120 46 57 2.0 4.0 0.00 0.01 0.01 81 1013.8
20190425141606 46 65 1.0 5.0 0.00 0.01 0.01 82 1013.9
20190425140150 46 56 1.0 4.0 0.00 0.01 0.01 83 1014.0
20190425134610 46 355 2.0 4.0 0.00 0.01 0.01 86 1014.0
20190425133053 46 71 0.0 2.0 0.00 0.01 0.01 88 1014.0
20190425131626 45 194 1.0 4.0 0.00 0.01 0.01 86 1013.9
20190425130044 45 68 0.0 2.0 0.00 0.01 0.01 89 1013.9
20190425124647 45 313 1.0 4.0 0.00 0.01 0.01 90 1014.0
20190425123052 45 138 1.0 3.0 0.00 0.01 0.01 94 1013.8
20190425121603 44 109 0.0 0.0 0.00 0.01 0.01 96 1013.9
20190425120102 42 109 0.0 1.0 0.00 0.01 0.01 98 1013.8
20190425114541 42 109 0.0 2.0 0.00 0.01 0.01 98 1013.7
20190425113039 41 109 0.0 1.0 0.00 0.01 0.01 98 1013.4
20190425111524 41 109 0.0 0.0 0.00 0.01 0.01 98 1013.4
20190425110020 41 109 0.0 0.0 0.00 0.01 0.01 98 1013.2
20190425104516 40 109 0.0 0.0 0.00 0.01 0.01 98 1013.1
20190425103024 40 109 0.0 0.0 0.00 0.01 0.01 98 1012.9
20190425101512 40 109 0.0 0.0 0.00 0.01 0.01 98 1012.7
20190425100046 40 109 0.0 0.0 0.00 0.01 0.01 97 1012.6
20190425094511 41 109 0.0 2.0 0.00 0.01 0.01 97 1012.3